Retour au catalogue

THORAD AGENA D DEB

ActifLEO
NORAD 4934·DEBRIS·🇺🇸 United States

Lancé Apr 8, 1970 depuis Vandenberg Space Force Base

Loading…

Prochains Passages (prochaines 24 heures)

TLE

FraisSource: Space-Track

Époque: Sep 14, 2026, 07:59 UTC

1 04934U 70025GA  26257.33292179  .00000395  00000-0  46174-3 0  9994
2 04934 100.0310  27.7398 0005192 317.4266  70.6979 13.75518335808633

Suivez THORAD AGENA D DEB en temps réel avec AllMySat

Download on the App Store